Tracking 22458 objects as of 3-Mar-2021
HD Live streaming from Space Station
objects crossing your sky now

DELTA 4 R/B

Track DELTA 4 R/B now!


NORAD ID: 28546
Int'l Code: 2004-050B
Perigee: 18,987.9 km
Apogee: 36,479.6 km
Inclination: 17.2 °
Period: 1,044.7 minutes
Semi major axis: 34104 km
RCS: Unknown
Launch date: December 21, 2004
Source: United States (US)
Launch site: AIR FORCE EASTERN TEST RANGE (AFETR)

Note: This is a ROCKET BODY
aabbcc
Your satellite tracking list
Your tracking list is empty




NASA's NSSDC Master Catalog

Two Line Element Set (TLE):
1 28546U 04050B   21061.22382378 -.00000116  00000-0  00000+0 0  9997
2 28546  17.1715  12.3387 2564411 229.8254 172.5207  1.37841846 81441
Source of the keplerian elements: McCants